Regional Weather Roundup
Issued by NWS Grand Forks, ND

Home | Current Version | Previous Version | Graphics & Text | Print | Product List | Glossary On
Versions: 1 2 3 4 5 6 7 8 9 10 11 12 13 14 15 16 17 18 19 20 21 22 23 24 25 26 27 28 29 30 31 32 33 34 35 36 37 38 39 40 41 42 43 44 45 46 47 48 49 50
000
ASUS43 KFGF 231431
RWRFGF
PRAIRIE TO PINES  WEATHER ROUNDUP
NATIONAL WEATHER SERVICE EASTERN NORTH DAKOTA/GRAND FORKS ND
900 AM CDT TUE MAY 23 2017

 **SATELLITE DATA USED TO AUGMENT SKY COVER AT AUTOMATED STATIONS**
 *****  WEATHER ACROSS EASTERN NORTH DAKOTA  *****

CITY           SKY/WX    TMP DP  RH WIND       PRES   REMARKS
GRAND FORKS    CLOUDY    51  45  79 N20       30.00R
GRAND FRKS AFB CLOUDY    50  45  81 N18       30.01R
DEVILS LAKE    FAIR      50  41  71 NE21G30   30.07S
FARGO          CLOUDY    49  46  90 N16G28    29.94R
WAHPETON ARPT  CLOUDY    46  45  93 N10G20    29.93R
$$

 ***** WEATHER ACROSS CENTRAL AND WESTERN NORTH DAKOTA  *****

CITY           SKY/WX    TMP DP  RH WIND       PRES   REMARKS
BISMARCK       PTSUNNY   56  37  49 N24G31    30.08S
MINOT          FAIR      55  37  50 N14       30.15R
JAMESTOWN      LGT RAIN  47  44  90 N20       30.01R
MINOT AFB      FAIR      53  37  54 NE9       30.15R
GARRISON         N/A     52  35  52 NE14      30.14R
WILLISTON      FAIR      52  37  56 CALM      30.18S
DICKINSON      FAIR      51  36  56 NW10      30.14S
HETTINGER      FAIR      52  36  54 NW14      30.15R
$$

 *****  OTHER AIRPORT OBSERVATIONS IN OUR AREA  *****

CITY           SKY/WX    TMP DP  RH WIND       PRES   REMARKS
WALHALLA       NOT AVBL
GRAFTON AIRPOR FAIR      50  45  81 N17G26    30.05R
VALLEY CITY AR NOT AVBL
CANDO          NOT AVBL
CAVALIER APRT  FAIR      54  46  76 N16       30.06R
GWINNER        CLOUDY    46  46 100 MISG      29.96R FOG
SHEYENNE NWR     N/A     47  46  95 N9        29.95S
ROLLA          FAIR      52  37  58 N17       30.13S
 ***** THE ABOVE OBSERVATIONS ARE NON NWS ARE NOT QUALITY
       CONTROLLED AND MAY MIS-REPORT RAIN FOR SNOW...
$$

  *****  WEATHER ACROSS NORTHERN MINNESOTA  *****

CITY           SKY/WX    TMP DP  RH WIND       PRES   REMARKS
FLAG ISLAND    FAIR      52  39  62 NE21G26   30.00R
WARROAD        CLOUDY    50  45  81 NE13G22   30.01R
ROSEAU         CLOUDY    52  45  76 NE17      30.00R
HALLOCK        FAIR      55  45  67 N14G22    30.03S
THF RVR FALLS  CLOUDY    47  43  86 NE15      29.98R
BAUDETTE       CLOUDY    47  43  86 NE10      29.97R
WASKISH        CLOUDY    46  45  93 NE13      29.95R
CROOKSTON      CLOUDY    48  45  87 NE10      29.99R
STEPHEN NDAWN    N/A     54  45  71 NE18        N/A
GREENBUSH NDAW   N/A     50  45  81 N17         N/A
$$
  *****  WEATHER ACROSS CENTRAL AND WEST MINNESOTA  *****

CITY           SKY/WX    TMP DP  RH WIND       PRES   REMARKS
FOSSTON        CLOUDY    45  45 100 N17       29.94S
BEMIDJI        CLOUDY    46  45  95 NE10      29.91R
PARK RAPIDS    LGT RAIN  51  43  74 NE8       29.88S
ELBOW LAKE     CLOUDY    47  46  95 NW10      29.89S
WADENA         LGT RAIN  46  46 100 NE6       29.88R
DETROIT LAKES  CLOUDY    50  46  87 N9G18     29.91R
MOORHEAD       CLOUDY    48  46  93 N15       29.94S
FERGUS FALLS   CLOUDY    48  46  93 N12G17    29.89S
MORRIS MN      PTSUNNY   48  46  93 N14       29.88R
STAPLES        CLOUDY    46  45  93 NE6       29.88R
$$
  *****  WEATHER ELSEWHERE ACROSS MINNESOTA  *****

CITY           SKY/WX    TMP DP  RH WIND       PRES   REMARKS
DULUTH         CLOUDY    50  43  77 E6        29.85S
INTRNTL FALLS  LGT RAIN  46  44  93 NE6       29.95R VSB 1
ELY            CLOUDY    45  45 100 NE6       29.89R
CLOQUET        DRIZZLE   48  43  81 NE3       29.87R
WHEATON        CLOUDY    48  45  87 N16       29.93R
BRAINERD       CLOUDY    49  44  83 NE7       29.88R
HIBBING        CLOUDY    46  44  93 N6        29.88R
ALEXANDRIA     CLOUDY    48  46  93 NE10      29.88R
SAINT CLOUD    CLOUDY    47  46  97 N6        29.85R
MINNEAPOLIS    CLOUDY    54  46  74 N5        29.82S
$$

  *****  WEATHER ACROSS SOUTH DAKOTA  *****

CITY           SKY/WX    TMP DP  RH WIND       PRES   REMARKS
SIOUX FALLS    LGT RAIN  48  46  93 N13       29.90R
BROOKINGS      LGT RAIN  46  44  93 N13       29.90R
WATERTOWN      LGT RAIN  45  44  97 N17       29.91S FOG
HURON          CLOUDY    48  46  93 N15       29.95S
SISSETON         N/A     48  47  96 N15       29.92R
ABERDEEN       CLOUDY    48  43  82 N17G29    29.97S
MITCHELL       CLOUDY    50  46  86 N18G24    29.95S
PIERRE         LGT RAIN  50  40  68 N15       30.02S
MOBRIDGE       CLOUDY    52  38  58 N24G31    30.02R
RAPID CITY     PTSUNNY   51  37  58 N14       30.15R
$$

  *****  SOME WEATHER IN NEARBY STATES *****

CITY           SKY/WX    TMP DP  RH WIND       PRES   REMARKS
GLASGOW MT     FAIR      52  37  56 CALM      30.17S
GREAT FALLS MT FAIR      56  42  59 S9        30.11F
CHEYENNE WY    CLOUDY    41  33  73 NW16G25   30.23R
SCOTTSBLUFF NE CLOUDY    46  40  79 W9        30.17S
OMAHA NE       PTSUNNY   55  43  63 NW10      29.91F
DES MOINES IA  FAIR      56  48  74 N13       29.84S
DAVENPORT IA   PTSUNNY   57  52  83 W7        29.79F
CHICAGO IL     LGT RAIN  59  54  83 SW13G20   29.81F
EAU CLAIRE WI  LGT RAIN  50  48  93 NE8       29.81R
LA CROSSE WI   CLOUDY    56  53  90 N8        29.77S
$$

  *****  SOME NATIONAL WEATHER *****

CITY           SKY/WX    TMP DP  RH WIND       PRES   REMARKS
LA GUARDIA NY  CLOUDY    62  49  62 E8        29.95S
RALEIGH NC     LGT RAIN  69  67  93 E7        29.86F FOG
ATLANTA GA     LGT RAIN  67  66  97 S8        29.84F
NEW ORLEANS LA PTSUNNY   77  70  79 NW13      29.77F
OKLAHOMA CITY  CLOUDY    57  54  89 N23G30    29.95R
ALBUQUERQUE NM FAIR      58  43  57 NE7       30.16R
SALT LAKE CITY FAIR      63  43  48 S8        30.18S
LOS ANGELES CA PTSUNNY   60  58  92 W7        29.95S FOG
BOISE ID       FAIR      62  40  44 SE9       30.12R
SEATTLE WA     FAIR      59  51  75 N5        30.04R
$$

*** WEATHER ACROSS MANITOBA...SASKATCHEWAN AND ONTARIO ***
                ***ONTARIO***

CITY           SKY/WX    TMP DP  RH WIND       PRES   REMARKS
GERALDTON      CLOUDY    43  41  93 N6        29.91R
THUNDER BAY    CLOUDY    48  46  93 N3        29.90R
SIOUX LOOKOUT  CLOUDY    52  41  66 VRB7      29.99R
TORONTO        PTSUNNY   66  52  59 SW8       29.87F
BIG TROUT LK   SUNNY     45  21  39 NE7       30.12F
PICKLE LAKE    MOSUNNY   46  36  66 NE7       30.03R
DRYDEN         CLOUDY    48  43  81 NE13G18   29.99R
KENORA         PTSUNNY   50  41  71 NE12G17   30.02R
$$
                *** MANITOBA***

CITY           SKY/WX    TMP DP  RH WIND       PRES   REMARKS
BRANDON        MOSUNNY   57  37  47 NE3       30.16S
DAUPHIN        SUNNY     59  37  44 SW8       30.15F
ISLAND LAKE    MOSUNNY   54  34  47 S5        30.14F
PILOT MOUND      N/A     52  39  62 N16         N/A
THE PAS        MOSUNNY   61  37  41 S8        30.08F
THOMPSON       MOSUNNY   57  37  47 SW9       30.08F
WINNIPEG       MOSUNNY   54  43  66 NE24      30.10R
LYNN LAKE      PTSUNNY   59  36  41 S10       29.94F
CHURCHILL      PTSUNNY   36  34  93 S13       30.09F
GILLAM         PTSUNNY   41  34  75 NE6       30.13F
$$
                ***SASKATCHEWAN***

CITY           SKY/WX    TMP DP  RH WIND       PRES   REMARKS
ESTEVAN        MOSUNNY   54  39  58 VRB2      30.17S
KINDERSLEY     PTSUNNY   57  36  44 S14       30.03F
LLOYDMINSTER   CLOUDY    59  39  47 S17G24    29.91F
PRINCE ALBERT  PTSUNNY   61  41  48 SW6       30.04F
REGINA         MOSUNNY   54  32  43 S8        30.14S
YORKTON        SUNNY     57  32  38 SW7       30.15S
N. BATTLEFORD  PTSUNNY   61  36  39 S13       30.02F
LA RONGE       CLOUDY    57  37  47 S8        29.95F
SASKATOON      PTSUNNY   57  37  47 SW9       30.08F
SWIFT CURRENT  SUNNY     59  32  36 SW15      30.10F
$$
NOTE: THESE ARE AUTOMATED STATIONS WITH LIMITED QUALITY CONTROL
      "FAIR" INDICATES FEW OR NO CLOUDS BELOW 12,000 FEET WITH NO
      SIGNIFICANT WEATHER AND/OR OBSTRUCTIONS TO VISIBILITY.
      SKY/WX - SKY CONDITION AND SIGNIFICANT WEATHER.
      TMP - AIR TEMPERATURE.    DP   - DEWPOINT TEMPERATURE.
      RH  - RELATIVE HUMIDITY.  PRES - PRESSURE.
      HX  - HEAT INDEX.         WCI  - WIND CHILL INDEX.
$




USA.gov is the U.S. government's official web portal to all federal, state and local government web resources and services.